EDT,Max TemperatureF,Mean TemperatureF,Min TemperatureF,Max Dew PointF,MeanDew PointF,Min DewpointF,Max Humidity, Mean Humidity, Min Humidity, Max Sea Level PressureIn, Mean Sea Level PressureIn, Min Sea Level PressureIn, Max VisibilityMiles, Mean VisibilityMiles, Min VisibilityMiles, Max Wind SpeedMPH, Mean Wind SpeedMPH, Max Gust SpeedMPH,PrecipitationIn, CloudCover, Events, WindDirDegrees
2013-3-1,55,47,39,37,32,28,76,60,41,29.97,29.92,29.87,10,9,5,7,1,,0.00,0,,312
2013-3-2,51,44,37,36,33,30,87,68,44,29.94,29.90,29.86,10,8,7,13,2,21,0.00,5,,262
2013-3-3,50,42,35,36,27,23,87,58,37,30.02,29.96,29.91,10,8,5,12,4,17,0.00,5,,329
2013-3-4,55,44,32,36,24,18,81,51,24,30.18,30.11,30.02,10,8,5,13,5,18,0.00,0,,341
2013-3-5,68,54,41,54,42,34,93,62,30,30.13,29.97,29.71,10,9,4,21,5,28,0.00,4,Rain,206
2013-3-6,60,51,42,54,29,21,82,47,32,30.09,29.87,29.70,10,9,5,17,9,28,0.00,1,,292
2013-3-7,59,49,39,39,31,28,93,56,34,30.24,30.17,30.09,10,8,7,15,7,21,0.00,0,,355
2013-3-8,59,49,37,36,29,23,87,52,25,30.30,30.24,30.17,10,8,5,12,6,18,0.00,0,,360
2013-3-9,64,50,37,41,33,28,87,54,32,30.33,30.28,30.24,10,8,3,10,4,,0.00,0,,10
2013-3-10,69,53,37,43,37,34,93,61,27,30.30,30.25,30.20,10,7,2,9,2,,0.00,0,,133
2013-3-11,71,58,44,57,50,36,94,71,46,30.23,30.08,29.92,10,6,2,16,3,24,0.00,5,,165
2013-3-12,73,66,57,63,57,45,94,73,38,29.94,29.87,29.81,10,8,3,18,8,25,0.13,5,Rain,221
2013-3-13,66,55,44,45,32,23,76,43,19,30.13,30.05,29.95,10,9,5,10,3,21,0.00,0,,310
2013-3-14,55,46,37,34,24,18,87,43,25,30.32,30.22,30.12,10,8,5,14,8,21,0.00,0,,360
2013-3-15,69,50,32,43,33,25,93,57,26,30.24,30.14,30.03,10,8,5,12,2,18,0.00,0,,228
2013-3-16,82,68,55,45,42,39,67,43,23,30.04,29.95,29.85,10,9,7,17,9,29,0.00,0,,239
2013-3-17,78,68,59,54,48,41,72,51,36,30.03,29.98,29.94,10,9,5,14,8,20,0.00,1,,232
2013-3-18,69,63,57,59,56,50,94,79,60,30.09,30.00,29.86,10,8,5,10,3,16,0.00,7,Rain-Thunderstorm,148
2013-3-19,71,61,51,55,50,43,94,76,35,30.01,29.92,29.83,10,7,0,12,4,20,0.22,4,Fog-Rain-Thunderstorm,341
2013-3-20,60,50,41,41,27,16,87,37,20,30.12,30.00,29.84,10,9,5,14,5,20,0.00,0,,12
2013-3-21,59,48,37,36,25,12,87,46,17,29.95,29.85,29.80,10,10,5,10,2,18,0.00,0,,299
2013-3-22,55,45,35,37,22,16,76,43,26,30.11,30.05,29.96,10,10,7,9,4,,0.00,4,,48
2013-3-23,51,45,39,50,42,34,94,84,54,30.06,30.00,29.90,10,8,2,10,2,16,0.17,7,Rain,53
2013-3-24,60,54,46,57,49,45,94,91,87,29.90,29.65,29.49,10,7,3,16,6,25,1.74,8,Rain-Thunderstorm,23
2013-3-25,55,50,44,45,32,23,93,57,31,29.96,29.74,29.58,10,8,5,14,6,28,0.00,3,,282
2013-3-26,53,42,32,32,26,23,80,54,33,30.18,30.04,29.97,10,9,7,10,4,22,0.00,2,,298
2013-3-27,59,46,32,36,29,23,87,58,29,30.28,30.22,30.18,10,9,5,12,3,18,0.00,0,,344
2013-3-28,60,48,37,36,28,23,93,47,27,30.31,30.25,30.19,10,9,7,12,5,18,0.00,0,,7
2013-3-29,64,48,33,41,31,21,93,55,22,30.36,30.29,30.22,10,8,5,9,2,,0.00,1,,46
2013-3-30,73,60,48,48,44,39,87,61,33,30.26,30.16,30.07,10,9,7,10,2,21,0.00,4,,206
2013-3-31,77,67,57,57,54,48,94,69,47,30.09,29.99,29.89,10,9,4,15,9,28,0.22,5,Rain-Thunderstorm,216